sat.trackr.live / text

‹ back to catalog

STARLINK-31585

NORAD 59608 · 2024-080H

PAYLOAD ACTIVE UNKNOWN

§ Identity

Operator
Country
US
Launch date
2024-04-28
Launch site
AFETR
Launch vehicle
Mass (kg)
RCS (m²)

Purposes: comms

External: N2YO · Heavens-Above · Gunter

§ Orbital elements

Epoch: 2026-05-24T20:01:22.638720Z

Period
94.27 min
Inclination
43.0027°
Eccentricity
0.0001292
Mean motion
15.27579946 rev/d
Perigee alt
482.2 km
Apogee alt
483.9 km
Semi-major
6,861.2 km
B*
9.0844e-5
RAAN
323.9353°
Arg perigee
264.5684°
Mean anomaly
95.5020°
Rev number
11,623

§ Raw data

STARLINK-315851 59608U 24080H   26144.83428980  .00002238  00000+0  90844-4 0  99942 59608  43.0027 323.9353 0001292 264.5684  95.5020 15.27579946116232

JSON: /api/v1/satellites/59608 · /tle

For live sub-satellite position, see the globe view (requires WebGL).

§ Visibility from observer

Set your observer location to see the next 7 days of passes ≥ 10°. The values pass through the URL so the page stays shareable.

No JS? Fill the form by hand. The geolocation button needs JavaScript.